KAITUO 1B
1 40912U 15049P   18068.86206083 +.00001029 +00000-0 +53066-4 0  9997
2 40912 097.4518 077.6056 0015633 004.4549 114.9771 15.18496947136595
TIANWANG 1C (TW-1C)
1 40926U 15051B   18069.51521065  .00005966  00000-0  11839-3 0  9993
2 40926  97.1961 112.3615 0008456 281.7896 184.3099 15.47356375138045
TIANWANG 1B (TW-1B)
1 40927U 15051C   18069.52768135  .00005921  00000-0  12239-3 0  9992
2 40927  97.2049 112.2606 0008389 295.6584 193.5904 15.46167404137965
TIANWANG 1A (TW-1A)
1 40928U 15051D   18068.86662037 +.00002468 +00000-0 +67858-4 0  9994
2 40928 097.1963 104.7912 0011283 328.9487 023.9970 15.38091451137503
LAPAN A2
1 40931U 15052B   18068.49731255 +.00000737 +00000-0 +13619-4 0  9990
2 40931 006.0000 140.9829 0013866 037.7690 322.3487 14.76568045132241
LQSAT
1 40958U 15057A   18069.39746783  .00000043  00000-0  14418-4 0  9994
2 40958  97.9487 144.6718 0016899 296.2757  63.6712 14.73019715130304
CHUBUSAT 2
1 41338U 16012B   18068.82698703 +.00000375 +00000-0 +22611-4 0  9996
2 41338 031.0024 224.9067 0013783 170.0359 190.0551 14.99931390112900
CHUBUSAT 3
1 41339U 16012C   18069.45210998  .00000326  00000-0  18648-4 0  9994
2 41339  31.0102 219.6767 0013539 183.0497 177.0072 15.00122732112988
OUFTI-1
1 41458U 16025C   18068.87545648 +.00001025 +00000-0 +57248-4 0  9994
2 41458 098.1492 126.3793 0172785 120.4518 241.3882 15.04323709102510
E-STAR-2
1 41459U 16025D   18068.73234958 +.00000690 +00000-0 +40176-4 0  9998
2 41459 098.1481 126.1059 0173626 121.4557 240.3750 15.04075924102472
AAUSAT 4
1 41460U 16025E   18069.06744430  .00001378  00000-0  75134-4 0  9994
2 41460  98.1421 126.8135 0165181 117.0842 244.7354 15.05382701102579
NUSAT 1
1 41557U 16033B   18069.22864753  .00001255  00000-0  48499-4 0  9997
2 41557  97.4407 153.6203 0014930 142.5848 217.6434 15.28055407 99040
BEESAT 4
1 41619U 16040W   18068.72637285  .00001269  00000-0  58906-4 0  9995
2 41619  97.4272 133.2073 0010874 211.9515 148.1063 15.21802865 82963
PRATHAM
1 41783U 16059A   18068.89270443 +.00000023 +00000-0 +13802-4 0  9997
2 41783 098.1303 131.9959 0034536 049.1135 311.3049 14.62904618077444
ALSAT 1N
1 41789U 16059G   18069.00175506  .00000066  00000-0  21611-4 0  9995
2 41789  98.1304 133.1255 0029314  42.0717 318.2733 14.64132139 77506
NAYIF 1
1 42017U 17008BX  18068.90398510 +.00001298 +00000-0 +56387-4 0  9991
2 42017 097.4599 134.5141 0006864 023.4329 336.7220 15.24099892058943
LILACSAT-1
1 42725U 98067ME  18069.20369606  .00019733  00000-0  20436-3 0  9997
2 42725  51.6366 141.2229 0003717 228.0330 132.0349 15.64699788 44997
MAX VALIER SAT
1 42778U 17036P   18068.72163997  .00000835  00000-0  40591-4 0  9991
2 42778  97.4162 130.0337 0014145  62.7647 297.5028 15.21075831 39382
